Weather History for KTUP - April, 2013

Change the Weather History Date:

Sunday, April 28, 2013

  Actual Average Record
Temperature  
Mean Temperature 64 °F 66 °F  
Max Temperature 72 °F 77 °F 91 °F (1981)
Min Temperature 56 °F 54 °F 35 °F (1973)
Degree Days  
Heating Degree Days 1 2  
Month to date heating degree days 161 142  
Since 1 July heating degree days 2902 2928  
Cooling Degree Days 0 3  
Month to date cooling degree days 54 53  
Year to date cooling degree days 61 69  
Growing Degree Days 16 (Base 50)    
Moisture  
Dew Point 59 °F    
Average Humidity 75    
Maximum Humidity 93    
Minimum Humidity 57    
Precipitation  
Precipitation T in 0.18 in 2.41 in (1991)
Month to date precipitation 5.18 4.43  
Year to date precipitation 21.94 18.69  
Snow  
Snow 0.00 in 0.00 in - ()
Month to date snowfall 0.0 0.0  
Since 1 July snowfall T 2.1  
Snow Depth 0.00 in    
Sea Level Pressure  
Sea Level Pressure 29.96 in    
Wind  
Wind Speed 4 mph (WNW)    
Max Wind Speed 10 mph    
Max Gust Speed 14 mph    
Visibility 10 miles    
Events Rain , Thunderstorm    
T = Trace of Precipitation, MM = Missing Value Source: NWS Daily Summary

Daily Weather History Graph

Daily Weather History Graph

Search for Another Location

Airport or City:

Trip Planner

Search our weather history database for the weather conditions in past years. The results will help you decide how hot, cold, wet, or windy it might be!

Date:

Astronomy

Apr. 28, 2013 Rise Set
Actual Time 6:08 AM CDT 7:37 PM CDT
Civil Twilight 5:41 AM CDT 8:03 PM CDT
Nautical Twilight 5:09 AM CDT 8:35 PM CDT
Astronomical Twilight 4:36 AM CDT 9:09 PM CDT
Moon 11:02 PM CDT (4/28) 8:29 AM CDT (4/28)
Length of Visible Light 14h 22m
Length of Day
13h 28m
Waning Gibbous, 88% of the Moon is Illuminated
Apr 28
Waning Gibbous
May 2
Last Quarter
May 9
New
May 17
First Quarter
May 24
Full

Hourly Weather History & Observations

Time (CDT) Temp. Dew Point Humidity Pressure Visibility Wind Dir Wind Speed Gust Speed Precip Events Conditions
12:13 AM 68.0 °F 66.2 °F 94% 29.97 in 2.0 mi Variable 6.9 mph - 0.11 in Rain , Thunderstorm Heavy Thunderstorms and Rain
12:23 AM 68.0 °F 66.2 °F 94% 30.00 in 8.0 mi West 6.9 mph - 0.18 in Rain , Thunderstorm Light Thunderstorms and Rain
12:53 AM 64.9 °F 61.0 °F 87% 29.99 in 9.0 mi Variable 3.5 mph - 0.20 in Rain , Thunderstorm Light Thunderstorms and Rain
1:46 AM 64.4 °F 60.8 °F 88% 29.96 in 10.0 mi South 3.5 mph - 0.01 in   Overcast
1:53 AM 64.0 °F 61.0 °F 90% 29.95 in 10.0 mi Calm Calm - 0.01 in   Mostly Cloudy
2:28 AM 62.6 °F 60.8 °F 94% 29.95 in 10.0 mi SSW 4.6 mph - N/A   Mostly Cloudy
2:53 AM 63.0 °F 61.0 °F 93% 29.93 in 10.0 mi Calm Calm - N/A Thunderstorm Thunderstorm
3:37 AM 62.6 °F 60.8 °F 94% 29.94 in 10.0 mi WSW 3.5 mph - N/A   Mostly Cloudy
3:53 AM 63.0 °F 61.0 °F 93% 29.94 in 10.0 mi WNW 3.5 mph - N/A   Overcast
4:53 AM 63.0 °F 61.0 °F 93% 29.94 in 10.0 mi West 3.5 mph - N/A   Overcast
5:30 AM 62.6 °F 60.8 °F 94% 29.95 in 10.0 mi Calm Calm - N/A   Overcast
5:53 AM 63.0 °F 60.1 °F 90% 29.94 in 10.0 mi WNW 3.5 mph - N/A   Overcast
6:01 AM 62.6 °F 60.8 °F 94% 29.96 in 10.0 mi West 3.5 mph - N/A   Overcast
6:36 AM 62.6 °F 60.8 °F 94% 29.96 in 10.0 mi Variable 3.5 mph - 0.00 in   Overcast
6:53 AM 63.0 °F 60.1 °F 90% 29.96 in 10.0 mi West 4.6 mph - 0.00 in   Overcast
7:06 AM 62.6 °F 60.8 °F 94% 29.97 in 10.0 mi Calm Calm - N/A   Overcast
7:13 AM 62.6 °F 60.8 °F 94% 29.95 in 10.0 mi Calm Calm - N/A   Overcast
7:22 AM 62.6 °F 60.8 °F 94% 29.97 in 10.0 mi Calm Calm - N/A   Overcast
7:33 AM 62.6 °F 60.8 °F 94% 29.97 in 10.0 mi WNW 3.5 mph - N/A   Overcast
7:53 AM 63.0 °F 61.0 °F 93% 29.96 in 10.0 mi WNW 3.5 mph - N/A   Overcast
8:11 AM 62.6 °F 60.8 °F 94% 29.98 in 10.0 mi West 3.5 mph - 0.00 in Rain , Thunderstorm Light Thunderstorms and Rain
8:21 AM 62.6 °F 60.8 °F 94% 29.98 in 10.0 mi West 3.5 mph - 0.00 in Rain Light Rain
8:34 AM 62.6 °F 60.8 °F 94% 29.98 in 10.0 mi WNW 4.6 mph - 0.00 in   Overcast
8:53 AM 63.0 °F 60.1 °F 90% 29.97 in 10.0 mi NW 4.6 mph - 0.00 in   Overcast
9:13 AM 62.6 °F 60.8 °F 94% 29.97 in 10.0 mi NNW 3.5 mph - N/A Thunderstorm Thunderstorm
9:32 AM 62.6 °F 60.8 °F 94% 29.99 in 10.0 mi NNW 9.2 mph - N/A Thunderstorm Thunderstorm
9:42 AM 60.8 °F 57.2 °F 88% 29.99 in 8.0 mi NNW 8.1 mph - N/A   Overcast
9:53 AM 61.0 °F 57.9 °F 90% 29.98 in 8.0 mi North 5.8 mph - N/A   Overcast
10:17 AM 62.6 °F 57.2 °F 82% 29.98 in 10.0 mi North 8.1 mph - N/A Thunderstorm Thunderstorm
10:32 AM 62.6 °F 57.2 °F 82% 29.97 in 10.0 mi NNW 5.8 mph - N/A   Overcast
10:42 AM 62.6 °F 57.2 °F 82% 29.97 in 10.0 mi North 3.5 mph - N/A   Overcast
10:53 AM 64.0 °F 57.9 °F 80% 29.97 in 10.0 mi NNW 4.6 mph - N/A   Overcast
11:12 AM 64.4 °F 57.2 °F 77% 29.97 in 10.0 mi NW 3.5 mph - N/A Thunderstorm Thunderstorm
11:20 AM 64.4 °F 57.2 °F 77% 29.98 in 10.0 mi Variable 6.9 mph - N/A Thunderstorm Thunderstorm
11:27 AM 66.2 °F 57.2 °F 73% 29.99 in 10.0 mi Variable 6.9 mph - N/A   Scattered Clouds
11:53 AM 66.9 °F 57.9 °F 73% 29.97 in 10.0 mi Calm Calm - N/A   Scattered Clouds
12:04 PM 66.2 °F 57.2 °F 73% 29.97 in 10.0 mi Calm Calm - N/A   Mostly Cloudy
12:50 PM 68.0 °F 55.4 °F 64% 29.98 in 10.0 mi Variable 6.9 mph - N/A   Overcast
12:53 PM 68.0 °F 57.0 °F 68% 29.97 in 10.0 mi NW 6.9 mph - N/A   Overcast
1:53 PM 69.1 °F 55.9 °F 63% 29.94 in 10.0 mi Variable 3.5 mph - N/A   Overcast
2:01 PM 69.8 °F 57.2 °F 64% 29.95 in 10.0 mi North 8.1 mph - N/A   Overcast
2:53 PM 70.0 °F 57.0 °F 63% 29.95 in 10.0 mi West 3.5 mph - N/A   Overcast
3:53 PM 71.1 °F 55.9 °F 59% 29.94 in 10.0 mi NNW 3.5 mph - N/A   Partly Cloudy
4:53 PM 71.1 °F 55.0 °F 57% 29.94 in 10.0 mi WSW 5.8 mph - N/A   Clear
5:53 PM 71.1 °F 55.0 °F 57% 29.93 in 10.0 mi WSW 5.8 mph - N/A   Clear
6:53 PM 69.1 °F 55.9 °F 63% 29.92 in 10.0 mi WSW 4.6 mph - N/A   Clear
7:53 PM 64.9 °F 55.9 °F 73% 29.93 in 10.0 mi WSW 3.5 mph - N/A   Clear
8:53 PM 61.0 °F 57.0 °F 87% 29.94 in 10.0 mi Calm Calm - N/A   Clear
9:53 PM 62.1 °F 57.0 °F 84% 29.96 in 10.0 mi WNW 3.5 mph - N/A   Mostly Cloudy
10:53 PM 61.0 °F 55.9 °F 83% 29.97 in 10.0 mi North 4.6 mph - N/A   Mostly Cloudy
11:53 PM 57.9 °F 54.0 °F 87% 29.97 in 10.0 mi NE 4.6 mph - N/A   Clear